This demonstration page uses our WeatherBlox Daily Observations layout. Learn more.

Left ArrowRight Arrow

41.86663, -103.66717

Hourly Observations for May 25, 2022

Temp ( °F °C ) Dew Point ( °F °C ) Humidity (%) Winds ( mph kmh ) Pressure ( in mb ) Visibility ( mi km ) Precip ( " mm )
12:53 am 00:53 Clear 41 5 37 2.8 86 86 NNE 8 13 30.01 1016 10 16 0.00 0.00
1:53 am 01:53 Clear 37 2.8 33 0.6 86 86 N 5 7 30.02 1017 10 16 0.00 0.00
2:53 am 02:53 Clear 37 2.8 34 1.1 89 89 NNW 3 6 30.03 1017 10 16 0.00 0.00
3:53 am 03:53 Clear 36 2.2 33 0.6 89 89 NW 8 13 30.03 1017 9 14 0.00 0.00
4:53 am 04:53 Clear 36 2.2 33 0.6 89 89 NW 9 15 30.03 1017 9 14 0.00 0.00
5:53 am 05:53 Sunny 36 2.2 33 0.6 89 89 NW 9 15 30.04 1017 8 13 0.00 0.00
6:53 am 06:53 Sunny 41 5 36 2.2 82 82 NW 12 19 30.05 1018 10 16 0.00 0.00
7:53 am 07:53 Hazy 49 9.4 39 3.9 69 69 WNW 10 17 30.03 1017 5 8 0.00 0.00
8:53 am 08:53 Sunny 55 12.8 41 5 59 59 NW 9 15 30.00 1016 10 16 0.00 0.00
9:53 am 09:53 Sunny 60 15.6 40 4.4 47 47 W 10 17 29.99 1016 10 16 0.00 0.00
10:53 am 10:53 Sunny 65 18.3 40 4.4 40 40 NW 13 20 29.96 1015 10 16 0.00 0.00
11:53 am 11:53 Mostly Cloudy 66 18.9 38 3.3 36 36 N 9 15 29.95 1014 10 16 0.00 0.00
12:53 pm 12:53 Mostly Cloudy 70 21.1 37 2.8 30 30 N 9 15 29.92 1013 10 16 0.00 0.00
1:53 pm 13:53 Mostly Cloudy 71 21.7 36 2.2 28 28 N 15 24 29.91 1013 10 16 0.00 0.00
2:53 pm 14:53 Mostly Cloudy 72 22.2 34 1.1 25 25 N 13 20 29.89 1012 10 16 0.00 0.00
3:53 pm 15:53 Partly Cloudy 71 21.7 32 0 24 24 NW 9 15 29.89 1012 10 16 0.00 0.00
4:53 pm 16:53 Mostly Sunny 76 24.4 31 -0.6 19 19 N 15 24 29.86 1011 10 16 0.00 0.00
5:53 pm 17:53 Sunny 74 23.3 31 -0.6 20 20 N 14 22 29.85 1011 10 16 0.00 0.00
6:53 pm 18:53 Sunny 73 22.8 32 0 22 22 N 8 13 29.83 1010 10 16 0.00 0.00
7:53 pm 19:53 Sunny 67 19.4 34 1.1 30 30 NE 7 11 29.83 1010 10 16 0.00 0.00
8:53 pm 20:53 Clear 56 13.3 36 2.2 47 47 undefined N/A 29.86 1011 10 16 0.00 0.00
9:53 pm 21:53 Clear 55 12.8 35 1.7 47 47 E 6 9 29.88 1012 10 16 0.00 0.00
10:53 pm 22:53 Clear 50 10 36 2.2 59 59 ENE 6 9 29.90 1013 10 16 0.00 0.00
11:53 pm 23:53 Clear 49 9.4 35 1.7 59 59 ENE 8 13 29.92 1013 10 16 0.00 0.00

Powered by AerisWeather